Location: Friaudour
(46.0460°N, 1.2873°E)
Time: 04:36:39
(UTC+00:00)

Cosmos 1763 Rocket - Pass Details

Date: 14 July 2020
Orbit: 732 x 781 km, 74.0° (Epoch: 06 August)

Event Time Altitude Azimuth Distance (km) Brightness Sun altitude
Rises 02:22:05 0° 342° (NNW) 3,239 7.3 -15.1°
Reaches altitude 10° 02:24:32 10° 347° (NNW) 2,316 6.6 -14.9°
Maximum altitude 02:29:39 51° 63° (ENE) 975 4.4 -14.4°
Drops below altitude 10° 02:34:48 10° 139° (SE) 2,324 5.9 -13.9°
Sets 02:37:15 0° 145° (SE) 3,251 6.6 -13.6°
